| time (UTC) | temp F | wind direction | speed MPH | gust MPH | rain 1hr in | rain 24hr in | rain mn in | humidity % | barometer mb |
| 20260831002526 | 89 | 278 | 1.0 | 4.0 | 0.00 | 0.00 | 0.00 | 45 | 1014.5 |
| 20260831001544 | 89 | 289 | 1.0 | 3.0 | 0.00 | 0.00 | 0.00 | 45 | 1014.5 |
| 20260831000522 | 90 | 314 | 1.0 | 2.0 | 0.00 | 0.00 | 0.00 | 44 | 1014.7 |
| 20260830235520 | 91 | 298 | 1.0 | 2.0 | 0.00 | 0.00 | 0.00 | 43 | 1014.7 |
| 20260830234518 | 91 | 294 | 1.0 | 2.0 | 0.00 | 0.00 | 0.00 | 42 | 1014.7 |
| 20260830233516 | 92 | 289 | 1.0 | 3.0 | 0.00 | 0.00 | 0.00 | 41 | 1014.7 |
| 20260830232534 | 93 | 257 | 0.0 | 3.0 | 0.00 | 0.00 | 0.00 | 39 | 1014.7 |
| 20260830231533 | 94 | 92 | 1.0 | 3.0 | 0.00 | 0.00 | 0.00 | 37 | 1014.5 |
| 20260830230531 | 94 | 251 | 2.0 | 3.0 | 0.00 | 0.00 | 0.00 | 37 | 1014.6 |
| 20260830225529 | 95 | 247 | 2.0 | 5.0 | 0.00 | 0.00 | 0.00 | 36 | 1014.6 |
| 20260830224527 | 95 | 282 | 2.0 | 6.0 | 0.00 | 0.00 | 0.00 | 37 | 1014.4 |
| 20260830223525 | 95 | 250 | 1.0 | 6.0 | 0.00 | 0.00 | 0.00 | 36 | 1014.7 |
| 20260830222523 | 95 | 279 | 1.0 | 4.0 | 0.00 | 0.00 | 0.00 | 36 | 1014.6 |
| 20260830221521 | 96 | 225 | 2.0 | 5.0 | 0.00 | 0.00 | 0.00 | 36 | 1014.7 |
| 20260830220519 | 96 | 226 | 1.0 | 4.0 | 0.00 | 0.00 | 0.00 | 35 | 1014.7 |
| 20260830215518 | 97 | 251 | 3.0 | 5.0 | 0.00 | 0.00 | 0.00 | 35 | 1014.7 |
| 20260830214516 | 97 | 275 | 3.0 | 9.0 | 0.00 | 0.00 | 0.00 | 33 | 1014.7 |
| 20260830213534 | 99 | 163 | 3.0 | 9.0 | 0.00 | 0.00 | 0.00 | 32 | 1014.8 |
| 20260830212532 | 99 | 283 | 3.0 | 4.0 | 0.00 | 0.00 | 0.00 | 33 | 1015.0 |
| 20260830211530 | 99 | 268 | 2.0 | 4.0 | 0.00 | 0.00 | 0.00 | 31 | 1014.9 |
| 20260830210528 | 99 | 254 | 4.0 | 7.0 | 0.00 | 0.00 | 0.00 | 31 | 1015.1 |
| 20260830205527 | 101 | 260 | 5.0 | 8.0 | 0.00 | 0.00 | 0.00 | 30 | 1015.2 |
| 20260830204524 | 102 | 257 | 4.0 | 8.0 | 0.00 | 0.00 | 0.00 | 30 | 1015.2 |
| 20260830203523 | 99 | 262 | 3.0 | 7.0 | 0.00 | 0.00 | 0.00 | 32 | 1015.4 |
| 20260830202621 | 100 | 263 | 4.0 | 6.0 | 0.00 | 0.00 | 0.00 | 33 | 1015.3 |
| 20260830201519 | 101 | 251 | 5.0 | 10.0 | 0.00 | 0.00 | 0.00 | 31 | 1015.4 |
| 20260830200537 | 100 | 252 | 4.0 | 8.0 | 0.00 | 0.00 | 0.00 | 33 | 1015.5 |
| 20260830195515 | 100 | 253 | 5.0 | 8.0 | 0.00 | 0.00 | 0.00 | 34 | 1015.6 |
| 20260830194533 | 101 | 262 | 4.0 | 6.0 | 0.00 | 0.00 | 0.00 | 33 | 1015.6 |
| 20260830193531 | 99 | 272 | 3.0 | 6.0 | 0.00 | 0.00 | 0.00 | 35 | 1015.8 |
| 20260830192530 | 99 | 262 | 4.0 | 8.0 | 0.00 | 0.00 | 0.00 | 35 | 1016.0 |
| 20260830191528 | 98 | 258 | 5.0 | 9.0 | 0.00 | 0.00 | 0.00 | 35 | 1015.9 |
| 20260830190526 | 98 | 210 | 2.0 | 4.0 | 0.00 | 0.00 | 0.00 | 35 | 1016.1 |
| 20260830185604 | 98 | 264 | 4.0 | 9.0 | 0.00 | 0.00 | 0.00 | 36 | 1016.2 |
| 20260830184522 | 98 | 258 | 3.0 | 9.0 | 0.00 | 0.00 | 0.00 | 36 | 1016.3 |
| 20260830183520 | 97 | 249 | 5.0 | 9.0 | 0.00 | 0.00 | 0.00 | 36 | 1016.5 |
| 20260830182518 | 96 | 225 | 4.0 | 10.0 | 0.00 | 0.00 | 0.00 | 37 | 1016.6 |
| 20260830181516 | 96 | 264 | 5.0 | 11.0 | 0.00 | 0.00 | 0.00 | 38 | 1016.7 |
| 20260830180534 | 96 | 259 | 5.0 | 7.0 | 0.00 | 0.00 | 0.00 | 37 | 1017.0 |
| 20260830175533 | 95 | 263 | 4.0 | 10.0 | 0.00 | 0.00 | 0.00 | 38 | 1017.1 |
| 20260830174531 | 94 | 255 | 5.0 | 9.0 | 0.00 | 0.00 | 0.00 | 38 | 1017.2 |
| 20260830173529 | 93 | 254 | 5.0 | 11.0 | 0.00 | 0.00 | 0.00 | 39 | 1017.3 |
| 20260830172527 | 91 | 244 | 6.0 | 11.0 | 0.00 | 0.00 | 0.00 | 40 | 1017.4 |
| 20260830171545 | 92 | 252 | 6.0 | 12.0 | 0.00 | 0.00 | 0.00 | 40 | 1017.5 |
| 20260830170523 | 91 | 253 | 5.0 | 10.0 | 0.00 | 0.00 | 0.00 | 42 | 1017.6 |
| 20260830165542 | 90 | 257 | 4.0 | 7.0 | 0.00 | 0.00 | 0.00 | 44 | 1017.8 |
| 20260830164519 | 89 | 271 | 5.0 | 10.0 | 0.00 | 0.00 | 0.00 | 45 | 1017.8 |
| 20260830163518 | 87 | 253 | 4.0 | 7.0 | 0.00 | 0.00 | 0.00 | 46 | 1017.8 |
| 20260830162516 | 88 | 245 | 4.0 | 12.0 | 0.00 | 0.00 | 0.00 | 46 | 1017.8 |
| 20260830161534 | 88 | 247 | 4.0 | 10.0 | 0.00 | 0.00 | 0.00 | 46 | 1018.0 |
| 20260830160532 | 88 | 259 | 5.0 | 9.0 | 0.00 | 0.00 | 0.00 | 46 | 1018.0 |
| 20260830155530 | 88 | 259 | 6.0 | 13.0 | 0.00 | 0.00 | 0.00 | 45 | 1017.8 |
| 20260830154528 | 86 | 260 | 4.0 | 8.0 | 0.00 | 0.00 | 0.00 | 48 | 1017.8 |
| 20260830153527 | 86 | 267 | 5.0 | 8.0 | 0.00 | 0.00 | 0.00 | 49 | 1017.8 |
| 20260830152525 | 85 | 239 | 4.0 | 7.0 | 0.00 | 0.00 | 0.00 | 50 | 1017.6 |
| 20260830151523 | 83 | 252 | 3.0 | 7.0 | 0.00 | 0.00 | 0.00 | 52 | 1017.7 |
| 20260830150521 | 83 | 245 | 5.0 | 9.0 | 0.00 | 0.00 | 0.00 | 52 | 1017.7 |
| 20260830145519 | 83 | 253 | 4.0 | 9.0 | 0.00 | 0.00 | 0.00 | 52 | 1017.7 |
| 20260830144517 | 82 | 244 | 4.0 | 10.0 | 0.00 | 0.00 | 0.00 | 53 | 1017.7 |
| 20260830143535 | 81 | 251 | 3.0 | 8.0 | 0.00 | 0.00 | 0.00 | 54 | 1017.6 |
| 20260830142533 | 80 | 222 | 3.0 | 7.0 | 0.00 | 0.00 | 0.00 | 54 | 1017.6 |
| 20260830141552 | 80 | 251 | 3.0 | 6.0 | 0.00 | 0.00 | 0.00 | 55 | 1017.6 |
| 20260830140530 | 79 | 208 | 2.0 | 4.0 | 0.00 | 0.00 | 0.00 | 56 | 1017.8 |
| 20260830135527 | 78 | 178 | 2.0 | 4.0 | 0.00 | 0.00 | 0.00 | 58 | 1017.7 |
| 20260830134526 | 77 | 253 | 3.0 | 6.0 | 0.00 | 0.00 | 0.00 | 59 | 1017.6 |
| 20260830133524 | 76 | 203 | 3.0 | 6.0 | 0.00 | 0.00 | 0.00 | 60 | 1017.8 |
| 20260830132522 | 75 | 358 | 2.0 | 6.0 | 0.00 | 0.00 | 0.00 | 61 | 1017.8 |
| 20260830131520 | 74 | 227 | 2.0 | 6.0 | 0.00 | 0.00 | 0.00 | 62 | 1017.8 |
| 20260830130518 | 73 | 47 | 3.0 | 7.0 | 0.00 | 0.00 | 0.00 | 64 | 1017.8 |
| 20260830125517 | 72 | 14 | 2.0 | 5.0 | 0.00 | 0.00 | 0.00 | 66 | 1017.6 |
| 20260830124555 | 71 | 119 | 2.0 | 5.0 | 0.00 | 0.00 | 0.00 | 69 | 1017.5 |
| 20260830123533 | 69 | 98 | 2.0 | 4.0 | 0.00 | 0.00 | 0.00 | 72 | 1017.6 |
| 20260830122531 | 69 | 118 | 2.0 | 4.0 | 0.00 | 0.00 | 0.00 | 73 | 1017.5 |
| 20260830121529 | 68 | 94 | 2.0 | 3.0 | 0.00 | 0.00 | 0.00 | 73 | 1017.6 |
| 20260830120527 | 68 | 61 | 2.0 | 3.0 | 0.00 | 0.00 | 0.00 | 74 | 1017.4 |
| 20260830115525 | 68 | 71 | 1.0 | 2.0 | 0.00 | 0.00 | 0.00 | 74 | 1017.3 |
| 20260830114523 | 68 | 141 | 2.0 | 3.0 | 0.00 | 0.00 | 0.00 | 73 | 1017.3 |
| 20260830113521 | 68 | 74 | 2.0 | 4.0 | 0.00 | 0.00 | 0.00 | 73 | 1017.2 |
| 20260830112520 | 69 | 33 | 4.0 | 6.0 | 0.00 | 0.00 | 0.00 | 72 | 1017.3 |
| 20260830111558 | 69 | 84 | 2.0 | 4.0 | 0.00 | 0.00 | 0.00 | 72 | 1017.3 |
| 20260830110516 | 69 | 105 | 2.0 | 4.0 | 0.00 | 0.00 | 0.00 | 71 | 1017.2 |
| 20260830105534 | 69 | 113 | 2.0 | 5.0 | 0.00 | 0.00 | 0.00 | 71 | 1017.2 |
| 20260830104532 | 69 | 30 | 3.0 | 7.0 | 0.00 | 0.00 | 0.00 | 71 | 1017.1 |
| 20260830103530 | 70 | 101 | 2.0 | 5.0 | 0.00 | 0.00 | 0.00 | 71 | 1017.2 |
| 20260830102528 | 69 | 95 | 2.0 | 5.0 | 0.00 | 0.00 | 0.00 | 71 | 1017.1 |
| 20260830101526 | 69 | 104 | 2.0 | 5.0 | 0.00 | 0.00 | 0.00 | 71 | 1016.9 |
| 20260830100524 | 70 | 126 | 3.0 | 5.0 | 0.00 | 0.00 | 0.00 | 71 | 1017.1 |
| 20260830095543 | 69 | 103 | 2.0 | 4.0 | 0.00 | 0.00 | 0.00 | 71 | 1017.1 |
| 20260830094521 | 69 | 113 | 3.0 | 5.0 | 0.00 | 0.00 | 0.00 | 71 | 1017.1 |
| 20260830093519 | 69 | 14 | 3.0 | 5.0 | 0.00 | 0.00 | 0.00 | 72 | 1017.1 |
| 20260830092617 | 69 | 108 | 2.0 | 6.0 | 0.00 | 0.00 | 0.00 | 72 | 1017.1 |
| 20260830091515 | 69 | 99 | 2.0 | 3.0 | 0.00 | 0.00 | 0.00 | 71 | 1017.1 |
| 20260830090534 | 70 | 101 | 2.0 | 4.0 | 0.00 | 0.00 | 0.00 | 71 | 1017.1 |
| 20260830085532 | 70 | 86 | 1.0 | 3.0 | 0.00 | 0.00 | 0.00 | 71 | 1017.2 |
| 20260830084530 | 70 | 95 | 2.0 | 3.0 | 0.00 | 0.00 | 0.00 | 70 | 1017.2 |
| 20260830083528 | 70 | 103 | 2.0 | 3.0 | 0.00 | 0.00 | 0.00 | 70 | 1017.2 |
| 20260830082526 | 70 | 77 | 0.0 | 3.0 | 0.00 | 0.00 | 0.00 | 70 | 1017.3 |
| 20260830081524 | 70 | 47 | 0.0 | 2.0 | 0.00 | 0.00 | 0.00 | 70 | 1017.2 |
| 20260830080522 | 70 | 52 | 0.0 | 2.0 | 0.00 | 0.00 | 0.00 | 69 | 1017.1 |
| 20260830075541 | 70 | 71 | 0.0 | 3.0 | 0.00 | 0.00 | 0.00 | 69 | 1017.0 |
| 20260830074518 | 70 | 89 | 1.0 | 4.0 | 0.00 | 0.00 | 0.00 | 69 | 1016.9 |
| 20260830073537 | 71 | 86 | 1.0 | 3.0 | 0.00 | 0.00 | 0.00 | 68 | 1017.0 |
| 20260830072535 | 71 | 20 | 0.0 | 2.0 | 0.00 | 0.00 | 0.00 | 68 | 1017.0 |
| 20260830071533 | 71 | 86 | 1.0 | 3.0 | 0.00 | 0.00 | 0.00 | 67 | 1016.9 |
| 20260830070552 | 71 | 89 | 1.0 | 3.0 | 0.00 | 0.00 | 0.00 | 67 | 1017.1 |
| 20260830065529 | 71 | 82 | 1.0 | 4.0 | 0.00 | 0.00 | 0.00 | 66 | 1017.1 |
| 20260830064527 | 72 | 16 | 1.0 | 3.0 | 0.00 | 0.00 | 0.00 | 66 | 1017.2 |
| 20260830063525 | 72 | 76 | 1.0 | 3.0 | 0.00 | 0.00 | 0.00 | 65 | 1017.2 |
| 20260830062543 | 72 | 341 | 1.0 | 2.0 | 0.00 | 0.00 | 0.00 | 65 | 1017.2 |
| 20260830061522 | 72 | 12 | 0.0 | 2.0 | 0.00 | 0.00 | 0.00 | 64 | 1017.1 |
| 20260830060520 | 73 | 26 | 1.0 | 2.0 | 0.00 | 0.00 | 0.00 | 62 | 1017.1 |
| 20260830055519 | 74 | 113 | 2.0 | 4.0 | 0.00 | 0.00 | 0.00 | 61 | 1016.9 |
| 20260830054516 | 74 | 102 | 1.0 | 4.0 | 0.00 | 0.00 | 0.00 | 62 | 1017.1 |
| 20260830053534 | 74 | 89 | 1.0 | 3.0 | 0.00 | 0.00 | 0.00 | 61 | 1017.0 |
| 20260830052532 | 74 | 61 | 0.0 | 2.0 | 0.00 | 0.00 | 0.00 | 61 | 1017.0 |
| 20260830051530 | 74 | 97 | 1.0 | 2.0 | 0.00 | 0.00 | 0.00 | 61 | 1017.1 |
| 20260830050528 | 74 | 83 | 1.0 | 2.0 | 0.00 | 0.00 | 0.00 | 60 | 1017.0 |
| 20260830045547 | 75 | 73 | 1.0 | 2.0 | 0.00 | 0.00 | 0.00 | 59 | 1017.1 |
| 20260830044524 | 76 | 1 | 0.0 | 1.0 | 0.00 | 0.00 | 0.00 | 58 | 1017.0 |
| 20260830043543 | 76 | 245 | 1.0 | 2.0 | 0.00 | 0.00 | 0.00 | 56 | 1017.0 |
| 20260830042521 | 76 | 302 | 0.0 | 2.0 | 0.00 | 0.00 | 0.00 | 55 | 1017.0 |
| 20260830041519 | 77 | 264 | 1.0 | 4.0 | 0.00 | 0.00 | 0.00 | 54 | 1017.0 |
| 20260830040517 | 77 | 109 | 1.0 | 4.0 | 0.00 | 0.00 | 0.00 | 53 | 1017.0 |
| 20260830035535 | 77 | 161 | 1.0 | 4.0 | 0.00 | 0.00 | 0.00 | 52 | 1017.1 |
| 20260830034534 | 77 | 152 | 1.0 | 3.0 | 0.00 | 0.00 | 0.00 | 51 | 1017.2 |
| 20260830033552 | 77 | 244 | 1.0 | 2.0 | 0.00 | 0.00 | 0.00 | 51 | 1017.1 |
| 20260830032530 | 78 | 178 | 0.0 | 3.0 | 0.00 | 0.00 | 0.00 | 50 | 1017.3 |
| 20260830031528 | 78 | 314 | 1.0 | 2.0 | 0.00 | 0.00 | 0.00 | 50 | 1017.3 |
| 20260830030526 | 78 | 75 | 0.0 | 2.0 | 0.00 | 0.00 | 0.00 | 50 | 1017.2 |
| 20260830025524 | 78 | 115 | 1.0 | 3.0 | 0.00 | 0.00 | 0.00 | 49 | 1017.1 |
| 20260830024522 | 79 | 70 | 1.0 | 2.0 | 0.00 | 0.00 | 0.00 | 49 | 1017.1 |
| 20260830023520 | 79 | 28 | 1.0 | 3.0 | 0.00 | 0.00 | 0.00 | 49 | 1017.0 |
| 20260830022519 | 80 | 78 | 0.0 | 2.0 | 0.00 | 0.00 | 0.00 | 48 | 1016.9 |
| 20260830021516 | 80 | 176 | 1.0 | 3.0 | 0.00 | 0.00 | 0.00 | 48 | 1016.7 |
| 20260830020535 | 80 | 70 | 1.0 | 4.0 | 0.00 | 0.00 | 0.00 | 48 | 1016.6 |
| 20260830015533 | 81 | 324 | 1.0 | 2.0 | 0.00 | 0.00 | 0.00 | 48 | 1016.5 |
| 20260830014531 | 81 | 0 | 1.0 | 3.0 | 0.00 | 0.00 | 0.00 | 48 | 1016.4 |
| 20260830013529 | 82 | 299 | 1.0 | 4.0 | 0.00 | 0.00 | 0.00 | 48 | 1016.2 |
| 20260830012547 | 82 | 51 | 1.0 | 2.0 | 0.00 | 0.00 | 0.00 | 48 | 1016.1 |
| 20260830011546 | 83 | 282 | 1.0 | 4.0 | 0.00 | 0.00 | 0.00 | 48 | 1015.9 |
| 20260830010604 | 84 | 299 | 1.0 | 4.0 | 0.00 | 0.00 | 0.00 | 47 | 1015.8 |
| 20260830005522 | 84 | 132 | 1.0 | 2.0 | 0.00 | 0.00 | 0.00 | 46 | 1015.9 |
| 20260830004520 | 85 | 284 | 1.0 | 4.0 | 0.00 | 0.00 | 0.00 | 45 | 1015.9 |
| 20260830003518 | 86 | 257 | 2.0 | 4.0 | 0.00 | 0.00 | 0.00 | 44 | 1015.9 |